Weather History for Kelso-Longview, WA

Change the Weather History Date:

Tuesday, February 26, 2013

  Actual Average Record
Temperature  
Mean Temperature 42 °F -  
Max Temperature 48 °F 49 °F 60 °F (2008)
Min Temperature 35 °F 33 °F 15 °F (2011)
Degree Days  
Heating Degree Days 24    
Moisture  
Dew Point 34 °F    
Average Humidity 75    
Maximum Humidity 93    
Minimum Humidity 57    
Precipitation  
Precipitation 0.00 in - - ()
Sea Level Pressure  
Sea Level Pressure 30.32 in    
Wind  
Wind Speed 7 mph (SSE)    
Max Wind Speed 15 mph    
Max Gust Speed 20 mph    
Visibility 10 miles    
Events      
Averages and records for this station are not official NWS values.
T = Trace of Precipitation, MM = Missing Value Source: NWS Daily Summary

Daily Weather History Graph

Daily Weather History Graph

Search for Another Location

Airport:

Trip Planner

Search our weather history database for the weather conditions in past years. The results will help you decide how hot, cold, wet, or windy it might be!

Date:

Astronomy

Feb. 26, 2013 Rise Set
Actual Time 6:55 AM PST 5:54 PM PST
Civil Twilight 6:25 AM PST 6:24 PM PST
Nautical Twilight 5:50 AM PST 6:59 PM PST
Astronomical Twilight 5:15 AM PST 7:33 PM PST
Moon 7:24 PM PST (2/26) 6:55 AM PST (2/26)
Length of Visible Light 11h 59m
Length of Day
10h 58m
Full, 99% of the Moon is Illuminated
Feb 26
Full
Mar 4
Last Quarter
Mar 11
New
Mar 19
First Quarter
Mar 27
Full

Hourly Weather History & Observations

Time (PST) Temp. Windchill Dew Point Humidity Pressure Visibility Wind Dir Wind Speed Gust Speed Precip Events Conditions
12:15 AM 37.4 °F 31.4 °F 33.8 °F 87% 30.38 in 10.0 mi SSE 8.1 mph - N/A   Mostly Cloudy
12:35 AM 37.4 °F 32.8 °F 33.8 °F 87% 30.37 in 10.0 mi SE 5.8 mph - N/A   Overcast
12:55 AM 37.4 °F 32.1 °F 33.8 °F 87% 30.38 in 10.0 mi SSE 6.9 mph - N/A   Overcast
1:15 AM 37.4 °F 32.1 °F 33.8 °F 87% 30.39 in 10.0 mi SSE 6.9 mph - N/A   Overcast
1:35 AM 37.4 °F 32.1 °F 33.8 °F 87% 30.38 in 10.0 mi SSE 6.9 mph - N/A   Overcast
1:55 AM 35.6 °F 30.7 °F 32.0 °F 87% 30.38 in 10.0 mi SE 5.8 mph - N/A   Scattered Clouds
2:15 AM 35.6 °F 30.7 °F 32.0 °F 87% 30.38 in 10.0 mi SE 5.8 mph - N/A   Scattered Clouds
2:35 AM 35.6 °F 30.7 °F 32.0 °F 87% 30.39 in 10.0 mi SE 5.8 mph - N/A   Overcast
2:55 AM 35.6 °F 31.7 °F 32.0 °F 87% 30.38 in 10.0 mi SE 4.6 mph - N/A   Overcast
3:15 AM 35.6 °F 30.7 °F 32.0 °F 87% 30.38 in 10.0 mi SE 5.8 mph - N/A   Mostly Cloudy
3:35 AM 35.6 °F 30.7 °F 32.0 °F 87% 30.38 in 10.0 mi SE 5.8 mph - N/A   Mostly Cloudy
3:55 AM 35.6 °F 28.6 °F 32.0 °F 87% 30.38 in 10.0 mi SE 9.2 mph - N/A   Overcast
4:15 AM 35.6 °F 30.7 °F 32.0 °F 87% 30.37 in 10.0 mi SSE 5.8 mph - N/A   Overcast
4:35 AM 35.6 °F 31.7 °F 32.0 °F 87% 30.37 in 10.0 mi SE 4.6 mph - N/A   Mostly Cloudy
4:55 AM 35.6 °F 31.7 °F 32.0 °F 87% 30.38 in 10.0 mi SE 4.6 mph - N/A   Mostly Cloudy
5:15 AM 35.6 °F 31.7 °F 32.0 °F 87% 30.39 in 10.0 mi SE 4.6 mph - N/A   Mostly Cloudy
5:35 AM 35.6 °F 30.7 °F 32.0 °F 87% 30.40 in 10.0 mi SSE 5.8 mph - N/A   Overcast
5:55 AM 35.6 °F 30.7 °F 33.8 °F 93% 30.39 in 10.0 mi SE 5.8 mph - N/A   Overcast
6:15 AM 37.4 °F 31.4 °F 33.8 °F 87% 30.39 in 8.0 mi SSE 8.1 mph - N/A   Overcast
6:35 AM 37.4 °F 31.4 °F 33.8 °F 87% 30.39 in 8.0 mi SE 8.1 mph - N/A   Overcast
6:55 AM 35.6 °F 30.7 °F 32.0 °F 87% 30.39 in 9.0 mi SE 5.8 mph - N/A   Overcast
7:15 AM 35.6 °F 31.7 °F 33.8 °F 93% 30.39 in 9.0 mi ESE 4.6 mph - N/A   Overcast
7:35 AM 35.6 °F 32.8 °F 33.8 °F 93% 30.38 in 8.0 mi SE 3.5 mph - N/A   Mostly Cloudy
7:55 AM 35.6 °F 31.7 °F 33.8 °F 93% 30.38 in 7.0 mi SE 4.6 mph - N/A   Partly Cloudy
8:15 AM 37.4 °F 32.1 °F 33.8 °F 87% 30.38 in 8.0 mi SSE 6.9 mph - N/A   Clear
8:35 AM 37.4 °F 33.8 °F 33.8 °F 87% 30.38 in 9.0 mi SSE 4.6 mph - N/A   Clear
8:55 AM 39.2 °F 35.9 °F 35.6 °F 87% 30.39 in 9.0 mi SE 4.6 mph - N/A   Clear
9:15 AM 39.2 °F 37.0 °F 33.8 °F 81% 30.39 in 10.0 mi SE 3.5 mph - N/A   Scattered Clouds
9:35 AM 41.0 °F 36.4 °F 35.6 °F 81% 30.38 in 10.0 mi South 6.9 mph - N/A   Mostly Cloudy
9:55 AM 41.0 °F 36.4 °F 35.6 °F 81% 30.37 in 10.0 mi SSE 6.9 mph - N/A   Scattered Clouds
10:15 AM 42.8 °F 37.5 °F 35.6 °F 76% 30.36 in 10.0 mi SSE 9.2 mph - N/A   Partly Cloudy
10:35 AM 42.8 °F 37.5 °F 35.6 °F 76% 30.36 in 10.0 mi SSE 9.2 mph - N/A   Clear
10:55 AM 42.8 °F 38.0 °F 35.6 °F 76% 30.36 in 10.0 mi SSE 8.1 mph - N/A   Scattered Clouds
11:15 AM 44.6 °F 38.8 °F 35.6 °F 71% 30.36 in 10.0 mi SSE 11.5 mph - N/A   Mostly Cloudy
11:35 AM 42.8 °F 37.5 °F 35.6 °F 76% 30.36 in 10.0 mi SSE 9.2 mph - N/A   Mostly Cloudy
11:55 AM 44.6 °F 39.7 °F 35.6 °F 71% 30.35 in 10.0 mi SSE 9.2 mph 18.4 mph N/A   Mostly Cloudy
12:15 PM 44.6 °F 40.2 °F 35.6 °F 71% 30.35 in 10.0 mi SSE 8.1 mph 17.3 mph N/A   Partly Cloudy
12:35 PM 44.6 °F 39.2 °F 37.4 °F 76% 30.33 in 10.0 mi SSE 10.4 mph 17.3 mph N/A   Clear
12:55 PM 46.4 °F 41.9 °F 37.4 °F 71% 30.32 in 10.0 mi SSE 9.2 mph 17.3 mph N/A   Clear
1:15 PM 44.6 °F 38.4 °F 35.6 °F 71% 30.31 in 10.0 mi South 12.7 mph - N/A   Partly Cloudy
1:35 PM 44.6 °F 38.4 °F 35.6 °F 71% 30.30 in 10.0 mi South 12.7 mph - N/A   Mostly Cloudy
1:55 PM 46.4 °F 41.1 °F 37.4 °F 71% 30.28 in 10.0 mi South 11.5 mph 19.6 mph N/A   Partly Cloudy
2:15 PM 48.2 °F - 37.4 °F 66% 30.28 in 10.0 mi South 13.8 mph - N/A   Mostly Cloudy
2:35 PM 48.2 °F - 33.8 °F 58% 30.28 in 10.0 mi South 12.7 mph 19.6 mph N/A   Mostly Cloudy
2:55 PM 48.2 °F - 33.8 °F 58% 30.28 in 10.0 mi South 15.0 mph - N/A   Mostly Cloudy
3:15 PM 46.4 °F 41.5 °F 33.8 °F 62% 30.28 in 10.0 mi South 10.4 mph - N/A   Clear
3:35 PM 46.4 °F 42.4 °F 33.8 °F 62% 30.29 in 10.0 mi South 8.1 mph - N/A   Clear
3:55 PM 46.4 °F 41.9 °F 33.8 °F 62% 30.28 in 10.0 mi SSE 9.2 mph - N/A   Partly Cloudy
4:15 PM 46.4 °F 42.9 °F 32.0 °F 57% 30.28 in 10.0 mi South 6.9 mph - N/A   Partly Cloudy
4:35 PM 46.4 °F 43.5 °F 33.8 °F 62% 30.28 in 10.0 mi SSE 5.8 mph - N/A   Mostly Cloudy
4:55 PM 46.4 °F 42.4 °F 32.0 °F 57% 30.27 in 10.0 mi SSE 8.1 mph - N/A   Overcast
5:15 PM 46.4 °F 44.3 °F 32.0 °F 57% 30.26 in 10.0 mi SE 4.6 mph - N/A   Overcast
5:35 PM 46.4 °F 42.4 °F 32.0 °F 57% 30.26 in 10.0 mi SSE 8.1 mph - N/A   Mostly Cloudy
5:55 PM 46.4 °F 43.5 °F 32.0 °F 57% 30.25 in 10.0 mi SE 5.8 mph - N/A   Mostly Cloudy
6:15 PM 46.4 °F 43.5 °F 32.0 °F 57% 30.25 in 10.0 mi SE 5.8 mph - N/A   Overcast
6:35 PM 46.4 °F 42.9 °F 32.0 °F 57% 30.25 in 10.0 mi SE 6.9 mph - N/A   Overcast
6:55 PM 46.4 °F 42.9 °F 32.0 °F 57% 30.24 in 10.0 mi ESE 6.9 mph - N/A   Overcast
7:15 PM 44.6 °F 40.7 °F 33.8 °F 66% 30.25 in 10.0 mi SE 6.9 mph - N/A   Overcast
7:35 PM 44.6 °F 41.4 °F 33.8 °F 66% 30.25 in 10.0 mi South 5.8 mph - N/A   Overcast
7:55 PM 44.6 °F 39.7 °F 33.8 °F 66% 30.25 in 10.0 mi SE 9.2 mph - N/A   Overcast
8:15 PM 44.6 °F 40.7 °F 33.8 °F 66% 30.25 in 10.0 mi SSE 6.9 mph - N/A   Overcast
8:35 PM 44.6 °F 39.7 °F 33.8 °F 66% 30.25 in 10.0 mi SE 9.2 mph - N/A   Overcast
8:55 PM 46.4 °F 43.5 °F 32.0 °F 57% 30.25 in 10.0 mi SSE 5.8 mph - N/A   Overcast
9:15 PM 44.6 °F 41.4 °F 33.8 °F 66% 30.25 in 10.0 mi SSE 5.8 mph - N/A   Overcast
9:35 PM 44.6 °F 39.2 °F 33.8 °F 66% 30.24 in 10.0 mi SSE 10.4 mph - N/A   Overcast
9:55 PM 44.6 °F 39.2 °F 33.8 °F 66% 30.25 in 10.0 mi SSE 10.4 mph 18.4 mph N/A   Overcast
10:15 PM 44.6 °F 39.2 °F 33.8 °F 66% 30.25 in 10.0 mi ESE 10.4 mph 17.3 mph N/A   Overcast
10:35 PM 44.6 °F 39.7 °F 33.8 °F 66% 30.25 in 10.0 mi SE 9.2 mph 16.1 mph N/A   Overcast
10:55 PM 44.6 °F 39.7 °F 35.6 °F 71% 30.25 in 10.0 mi SE 9.2 mph - N/A   Overcast
11:15 PM 44.6 °F 38.8 °F 35.6 °F 71% 30.25 in 10.0 mi SE 11.5 mph - N/A   Overcast
11:35 PM 44.6 °F 40.2 °F 35.6 °F 71% 30.26 in 10.0 mi SSE 8.1 mph - N/A   Overcast
11:55 PM 44.6 °F 40.2 °F 35.6 °F 71% 30.25 in 10.0 mi SSE 8.1 mph - N/A   Overcast